TOW2230 EGVN-FHAW

Flight info

Callsign TOW2230
Flight time N/A
Altitude 38000
Route CONKO L18 UNZIB DCT GAJIT DCT ADKIK DCT DAWLY DCT GAPLI/M081F380 DCT GUNSO DCT OMOKO T16 EKROL/M081F390 T16 NAVIX/N0462F390 T16 SNT UN741 NELSO DCT NOCUT/N0461F400 UG853 TURED DCT 12N018W 10N018W/N0457F390 05N017W 00N016W/N0454F400 05S015W DCT MATHY
Aircraft A332/H-SDE3GHIJ2J3J5M1RVWXY/LB2D1

Departure

Time 2026-05-03 21:53
Airport RAF Brize Norton (EGVN)

Arrival

Time N/A
Airport RAF Ascension Island (FHAW)
Time Latitude Longitude Altitude Speed Heading
2026-05-03 20:48 51.75633 -1.57856 268 ft 0 kts 316°
2026-05-03 20:49 51.75619 -1.57835 268 ft 0 kts 316°
2026-05-03 21:13 51.75633 -1.57856 268 ft 0 kts 316°
2026-05-03 21:39 51.75624 -1.57841 268 ft 4 kts 316°
2026-05-03 21:39 51.75604 -1.57811 268 ft 4 kts 316°
2026-05-03 21:39 51.75585 -1.57781 268 ft 4 kts 316°
2026-05-03 21:40 51.75572 -1.57761 268 ft 4 kts 315°
2026-05-03 21:40 51.75546 -1.57720 268 ft 4 kts 315°
2026-05-03 21:40 51.75541 -1.57711 268 ft 1 kts 315°
2026-05-03 21:40 51.75539 -1.57709 268 ft 0 kts 315°
2026-05-03 21:42 51.75541 -1.57710 268 ft 0 kts 319°
2026-05-03 21:43 51.75543 -1.57712 268 ft 0 kts 329°
2026-05-03 21:43 51.75546 -1.57711 268 ft 0 kts 347°
2026-05-03 21:43 51.75550 -1.57710 268 ft 1 kts
2026-05-03 21:43 51.75562 -1.57701 268 ft 3 kts 22°
2026-05-03 21:44 51.75588 -1.57683 268 ft 5 kts 22°
2026-05-03 21:44 51.75630 -1.57658 268 ft 7 kts 17°
2026-05-03 21:44 51.75684 -1.57631 268 ft 9 kts 19°
2026-05-03 21:44 51.75747 -1.57597 268 ft 10 kts 17°
2026-05-03 21:45 51.75804 -1.57568 268 ft 7 kts 18°
2026-05-03 21:45 51.75852 -1.57544 268 ft 7 kts 18°
2026-05-03 21:45 51.75899 -1.57517 268 ft 8 kts 21°
2026-05-03 21:45 51.75927 -1.57473 268 ft 6 kts 62°
2026-05-03 21:46 51.75932 -1.57429 268 ft 4 kts 89°
2026-05-03 21:46 51.75929 -1.57365 268 ft 7 kts 94°
2026-05-03 21:46 51.75921 -1.57273 268 ft 10 kts 102°
2026-05-03 21:46 51.75899 -1.57158 268 ft 12 kts 111°
2026-05-03 21:47 51.75858 -1.57039 268 ft 12 kts 124°
2026-05-03 21:47 51.75803 -1.56947 268 ft 11 kts 141°
2026-05-03 21:47 51.75736 -1.56890 268 ft 10 kts 161°
2026-05-03 21:47 51.75668 -1.56856 268 ft 10 kts 163°
2026-05-03 21:48 51.75603 -1.56826 268 ft 10 kts 164°
2026-05-03 21:48 51.75539 -1.56796 268 ft 9 kts 164°
2026-05-03 21:48 51.75478 -1.56767 268 ft 9 kts 163°
2026-05-03 21:48 51.75410 -1.56734 267 ft 11 kts 164°
2026-05-03 21:49 51.75326 -1.56695 267 ft 13 kts 163°
2026-05-03 21:49 51.75255 -1.56660 268 ft 9 kts 162°
2026-05-03 21:49 51.75206 -1.56637 268 ft 6 kts 164°
2026-05-03 21:49 51.75171 -1.56620 268 ft 4 kts 163°
2026-05-03 21:50 51.75157 -1.56598 268 ft 3 kts 122°
2026-05-03 21:50 51.75151 -1.56548 268 ft 6 kts 92°
2026-05-03 21:50 51.75162 -1.56462 268 ft 9 kts 74°
2026-05-03 21:50 51.75183 -1.56350 268 ft 12 kts 75°
2026-05-03 21:51 51.75210 -1.56213 268 ft 13 kts 61°
2026-05-03 21:51 51.75290 -1.56151 269 ft 12 kts 358°
2026-05-03 21:51 51.75368 -1.56186 270 ft 11 kts 338°
2026-05-03 21:51 51.75381 -1.56209 270 ft 0 kts 288°
2026-05-03 21:52 51.75380 -1.56214 270 ft 0 kts 265°
2026-05-03 21:52 51.75375 -1.56243 270 ft 4 kts 255°
2026-05-03 21:52 51.75341 -1.56432 270 ft 41 kts 253°
2026-05-03 21:52 51.75204 -1.57181 267 ft 96 kts 254°
2026-05-03 21:53 51.74968 -1.58464 268 ft 144 kts 253°
2026-05-03 21:53 51.74646 -1.60202 523 ft 169 kts 253°
2026-05-03 21:53 51.74317 -1.61984 1316 ft 163 kts 253°
2026-05-03 21:53 51.73990 -1.63718 2011 ft 163 kts 253°
2026-05-03 21:54 51.73655 -1.65565 2261 ft 180 kts 255°
2026-05-03 21:54 51.73382 -1.67675 2500 ft 204 kts 268°
2026-05-03 21:54 51.73834 -1.69927 2711 ft 226 kts 308°
2026-05-03 21:54 51.75176 -1.71423 2889 ft 248 kts 337°
2026-05-03 21:55 51.76752 -1.72636 3314 ft 259 kts 325°
2026-05-03 21:55 51.77901 -1.74827 3842 ft 258 kts 291°
2026-05-03 21:55 51.78171 -1.77704 4243 ft 268 kts 269°
2026-05-03 21:55 51.78054 -1.80725 4921 ft 270 kts 264°
2026-05-03 21:56 51.77894 -1.83731 5697 ft 269 kts 265°
2026-05-03 21:56 51.77597 -1.86725 6361 ft 271 kts 252°
2026-05-03 21:56 51.76836 -1.89525 6986 ft 275 kts 243°
2026-05-03 21:56 51.75925 -1.92263 7672 ft 278 kts 241°
2026-05-03 21:57 51.74996 -1.95020 8436 ft 280 kts 241°
2026-05-03 21:57 51.73968 -1.97693 9140 ft 282 kts 230°
2026-05-03 21:57 51.72455 -1.99694 9784 ft 285 kts 206°
2026-05-03 21:57 51.70614 -2.00844 10331 ft 292 kts 198°
2026-05-03 21:58 51.68670 -2.01786 11033 ft 291 kts 197°
2026-05-03 21:58 51.66725 -2.02700 11734 ft 291 kts 197°
2026-05-03 21:58 51.64775 -2.03629 12386 ft 292 kts 197°
2026-05-03 21:58 51.62798 -2.04465 12993 ft 295 kts 190°
2026-05-03 21:59 51.60745 -2.04648 13577 ft 298 kts 175°
2026-05-03 21:59 51.58693 -2.04065 14139 ft 301 kts 167°
2026-05-03 21:59 51.56663 -2.03155 14711 ft 304 kts 163°
2026-05-03 21:59 51.54645 -2.02080 15263 ft 306 kts 162°
2026-05-03 22:00 51.52626 -2.00940 15810 ft 309 kts 161°
2026-05-03 22:00 51.50582 -1.99843 16333 ft 311 kts 166°
2026-05-03 22:00 51.48473 -1.99277 16844 ft 312 kts 176°
2026-05-03 22:00 51.46299 -1.99116 17373 ft 313 kts 180°
2026-05-03 22:01 51.44112 -1.99152 17877 ft 315 kts 182°
2026-05-03 22:01 51.41912 -1.99302 18360 ft 318 kts 184°
2026-05-03 22:01 51.39693 -1.99500 18851 ft 319 kts 184°
2026-05-03 22:01 51.37475 -1.99757 19349 ft 320 kts 188°
2026-05-03 22:02 51.35279 -2.00401 19813 ft 322 kts 195°
2026-05-03 22:02 51.33163 -2.01602 20267 ft 324 kts 205°
2026-05-03 22:02 51.31154 -2.03256 20707 ft 326 kts 209°
2026-05-03 22:02 51.29191 -2.05104 21142 ft 328 kts 211°
2026-05-03 22:03 51.27256 -2.07053 21586 ft 329 kts 213°
2026-05-03 22:03 51.25323 -2.09049 22011 ft 331 kts 213°
2026-05-03 22:03 51.23385 -2.11055 22422 ft 333 kts 213°
2026-05-03 22:03 51.21453 -2.13043 22827 ft 335 kts 212°
2026-05-03 22:04 51.19480 -2.15054 23230 ft 337 kts 212°
2026-05-03 22:04 51.17490 -2.17065 23636 ft 339 kts 212°
2026-05-03 22:04 51.15489 -2.19076 24031 ft 340 kts 212°